Weather History for Kendall, FL

Change the Weather History Date:

Friday, December 13, 2013

  Actual Average Record
Temperature  
Mean Temperature 72 °F -  
Max Temperature 80 °F 77 °F 84 °F (2002)
Min Temperature 63 °F 58 °F 40 °F (1992)
Cooling Degree Days 6    
Growing Degree Days 22 (Base 50)    
Moisture  
Dew Point 65 °F    
Average Humidity 78    
Maximum Humidity 90    
Minimum Humidity 62    
Precipitation  
Precipitation 0.00 in - - ()
Sea Level Pressure  
Sea Level Pressure 30.14 in    
Wind  
Wind Speed 10 mph (ENE)    
Max Wind Speed 17 mph    
Max Gust Speed 24 mph    
Visibility 10 miles    
Events      
Averages and records for this station are not official NWS values.
T = Trace of Precipitation, MM = Missing Value Source: NWS Daily Summary

Daily Weather History Graph

Daily Weather History Graph

Search for Another Location

Airport:

Trip Planner

Search our weather history database for the weather conditions in past years. The results will help you decide how hot, cold, wet, or windy it might be!

Date:

Astronomy

Dec. 13, 2013 Rise Set
Actual Time 6:59 AM EST 5:32 PM EST
Civil Twilight 6:34 AM EST 5:57 PM EST
Nautical Twilight 6:05 AM EST 6:26 PM EST
Astronomical Twilight 5:37 AM EST 6:54 PM EST
Moon 3:01 PM EST (12/13) 3:35 AM EST (12/13)
Length of Visible Light 11h 23m
Length of Day
10h 33m
Waxing Gibbous, 88% of the Moon is Illuminated
Dec 13
Waxing Gibbous
Dec 17
Full
Dec 25
Last Quarter
Jan 1
New
Jan 7
First Quarter

Hourly Weather History & Observations

Time (EST) Temp. Heat Index Dew Point Humidity Pressure Visibility Wind Dir Wind Speed Gust Speed Precip Events Conditions
12:53 AM 63.0 °F - 59.0 °F 87% 30.17 in 10.0 mi North 8.1 mph - N/A   Clear
1:53 AM 63.0 °F - 59.0 °F 87% 30.15 in 10.0 mi North 5.8 mph - N/A   Partly Cloudy
2:53 AM 63.0 °F - 60.1 °F 90% 30.14 in 10.0 mi North 6.9 mph - N/A   Clear
3:53 AM 63.0 °F - 60.1 °F 90% 30.13 in 10.0 mi North 8.1 mph - N/A   Clear
4:53 AM 63.0 °F - 60.1 °F 90% 30.14 in 10.0 mi NNE 4.6 mph - N/A   Clear
5:53 AM 63.0 °F - 60.1 °F 90% 30.14 in 10.0 mi North 3.5 mph - N/A   Clear
6:53 AM 63.0 °F - 60.1 °F 90% 30.15 in 10.0 mi Calm Calm - N/A   Clear
7:53 AM 66.0 °F - 63.0 °F 90% 30.16 in 10.0 mi Calm Calm - N/A   Clear
8:53 AM 75.0 °F - 64.9 °F 71% 30.17 in 10.0 mi ENE 10.4 mph - N/A   Clear
9:53 AM 77.0 °F - 66.0 °F 69% 30.18 in 10.0 mi ENE 13.8 mph - N/A   Partly Cloudy
10:23 AM 77.0 °F - 66.2 °F 69% 30.18 in 10.0 mi East 15.0 mph - N/A   Mostly Cloudy
10:35 AM 77.0 °F - 66.2 °F 69% 30.18 in 10.0 mi East 15.0 mph - N/A   Mostly Cloudy
10:53 AM 79.0 °F - 66.0 °F 64% 30.18 in 10.0 mi East 17.3 mph 24.2 mph N/A   Mostly Cloudy
11:53 AM 78.1 °F - 64.9 °F 64% 30.17 in 10.0 mi East 13.8 mph - N/A   Mostly Cloudy
12:53 PM 79.0 °F - 66.0 °F 64% 30.14 in 10.0 mi East 16.1 mph - N/A   Mostly Cloudy
1:53 PM 79.0 °F - 66.0 °F 64% 30.11 in 10.0 mi East 16.1 mph - N/A   Partly Cloudy
2:53 PM 80.1 °F 82.1 °F 66.0 °F 62% 30.10 in 10.0 mi East 15.0 mph - N/A   Partly Cloudy
3:53 PM 79.0 °F - 68.0 °F 69% 30.09 in 10.0 mi East 16.1 mph - N/A   Scattered Clouds
4:53 PM 77.0 °F - 66.9 °F 71% 30.10 in 10.0 mi East 16.1 mph - N/A   Scattered Clouds
5:53 PM 75.0 °F - 68.0 °F 79% 30.10 in 10.0 mi East 11.5 mph - N/A   Partly Cloudy
6:53 PM 73.9 °F - 68.0 °F 82% 30.10 in 10.0 mi East 10.4 mph - N/A   Partly Cloudy
7:53 PM 73.9 °F - 68.0 °F 82% 30.12 in 10.0 mi East 11.5 mph - N/A   Mostly Cloudy
8:53 PM 75.0 °F - 68.0 °F 79% 30.11 in 10.0 mi East 16.1 mph 23.0 mph N/A   Mostly Cloudy
9:53 PM 75.0 °F - 69.1 °F 82% 30.12 in 10.0 mi East 11.5 mph - N/A   Overcast
10:53 PM 73.9 °F - 69.1 °F 85% 30.12 in 10.0 mi ESE 13.8 mph - N/A   Partly Cloudy
11:53 PM 75.0 °F - 69.1 °F 82% 30.10 in 10.0 mi ESE 15.0 mph - N/A   Mostly Cloudy